GFSNE_850_dewp_078.txt.gz
Dewpoint
3 -1 -0 0 1 -0 -0 1 5 6 5 6 6 4 5 6 6 6 6 6 6 6 5 4 3 -0 -2 -0 3 3 3 3 4 5 3 0 6 6
-1 -1 1 0 -0 -0 0 1 3 5 6 6 5 5 4 6 6 6 5 5 5 5 4 4 3 -0 -1 0 3 2 2 3 3 4 5 4 -3 4
-0 1 0 -0 -1 -1 -1 0 3 4 5 4 5 5 5 4 5 5 5 4 4 4 4 3 1 -1 -1 -1 1 2 1 2 3 3 5 6 0 1
1 -0 -1 -1 -1 -1 -0 1 2 3 3 4 5 5 5 5 5 4 4 4 3 3 3 3 0 -1 -1 -2 0 1 0 1 2 4 4 5 7 8
-0 -0 -1 -1 -2 -1 0 2 1 3 3 4 4 4 4 4 4 4 4 3 3 2 2 1 -0 -1 -2 -2 -3 -1 0 0 1 2 4 5 4 6
-0 -1 -1 -2 -1 -1 0 0 1 2 2 3 3 3 3 3 3 3 2 2 2 1 1 0 -1 -1 -2 -3 -5 -5 -4 -2 -0 1 2 3 4 5
-0 -1 -1 -2 -2 -1 -1 1 1 2 2 2 2 2 2 2 2 2 2 1 1 0 -0 -1 -1 -2 -4 -10 -18 -20 -16 -7 -3 -1 0 1 2 2
-1 -1 -2 -3 -2 -0 0 1 1 2 2 1 1 1 1 1 1 1 1 0 -0 -0 -1 -1 -3 -6 -15 -21 -23 -24 -24 -24 -16 -6 -2 -0 0 0
-1 -1 -2 -1 -0 0 0 1 1 1 1 1 1 0 0 0 0 0 -0 -1 -1 -3 -10 -6 -12 -19 -22 -23 -25 -26 -26 -28 -28 -26 -23 -11 -6 -3
-1 -1 -1 -1 -0 0 0 1 1 0 0 0 -0 -0 -0 -0 -1 -1 -2 -2 -5 -7 -10 -18 -22 -23 -23 -23 -23 -23 -21 -20 -21 -22 -26 -29 -30 -29
-1 -2 -2 -0 0 0 0 -0 -1 -0 -1 -2 -5 -4 -2 -2 -2 -3 -4 -6 -7 -12 -18 -22 -23 -23 -22 -21 -20 -19 -18 -17 -17 -17 -17 -17 -17 -17
-1 -2 -1 -0 0 -0 -1 -1 -1 -2 -6 -15 -21 -24 -22 -16 -10 -8 -9 -11 -14 -21 -24 -23 -23 -23 -21 -20 -18 -17 -16 -16 -15 -14 -14 -14 -14 -14
-1 -2 -0 -1 -1 -1 -2 -3 -6 -16 -20 -21 -21 -22 -21 -20 -17 -18 -18 -19 -21 -25 -28 -24 -22 -21 -16 -16 -17 -16 -15 -14 -14 -14 -14 -15 -15 -15
-2 -1 -1 -1 -1 -2 -9 -15 -19 -20 -21 -21 -21 -21 -21 -22 -24 -24 -26 -26 -26 -28 -26 -21 -19 -18 -16 -16 -16 -16 -15 -14 -14 -14 -15 -16 -16 -15
-1 -1 -5 -9 -8 -12 -19 -21 -22 -22 -22 -22 -21 -20 -20 -21 -23 -24 -25 -26 -25 -25 -25 -22 -17 -16 -16 -16 -16 -16 -16 -16 -16 -16 -16 -16 -16 -16
-2 -2 -4 -19 -17 -17 -18 -20 -20 -20 -22 -23 -21 -20 -20 -22 -23 -25 -24 -23 -21 -21 -20 -19 -17 -16 -16 -16 -16 -16 -16 -16 -17 -17 -17 -17 -17 -17
-1 -1 -2 -15 -22 -19 -18 -17 -15 -18 -21 -21 -22 -22 -22 -23 -24 -24 -22 -20 -20 -21 -21 -20 -19 -18 -17 -16 -16 -17 -17 -18 -18 -19 -18 -18 -18 -17
-2 -1 -2 -3 -20 -21 -20 -18 -16 -17 -19 -20 -20 -20 -22 -23 -23 -22 -21 -20 -21 -21 -21 -21 -22 -21 -20 -20 -21 -21 -22 -21 -21 -20 -19 -18 -17 -15
-2 -2 -2 -2 -3 -20 -22 -21 -20 -19 -19 -19 -19 -20 -19 -20 -21 -18 -16 -19 -21 -20 -20 -21 -22 -22 -22 -22 -22 -22 -21 -20 -20 -19 -16 -13 -12 -12
-2 -2 -1 -1 -2 -6 -22 -22 -21 -20 -19 -19 -20 -20 -20 -20 -18 -14 -14 -18 -21 -19 -20 -21 -20 -21 -22 -21 -22 -22 -19 -17 -16 -14 -10 -7 -7 -7
-2 -2 -2 -2 -1 -2 -13 -20 -20 -20 -20 -20 -20 -20 -19 -19 -19 -17 -12 -13 -21 -20 -20 -15 -16 -20 -22 -22 -21 -21 -18 -13 -12 -11 -8 -7 -8 -8
-2 -2 -2 -2 -2 -2 -5 -18 -16 -16 -17 -19 -21 -21 -20 -19 -14 -6 -5 -11 -20 -21 -14 -13 -13 -19 -20 -20 -21 -20 -16 -9 -8 -8 -8 -8 -8 -10
-2 -2 -2 -2 -2 -2 -5 -17 -17 -17 -18 -19 -20 -20 -17 -13 -8 -5 -15 -18 -19 -19 -16 -14 -15 -17 -18 -19 -20 -19 -16 -10 -8 -8 -9 -9 -9 -11

GFSNE_850_dewp_081.txt.gz
Dewpoint
9 8 8 7 1 -0 1 1 1 5 5 5 6 6 5 4 4 6 6 6 6 6 6 5 5 4 3 0 -1 1 1 2 2 4 4 4 1 6
8 8 3 -1 -0 1 1 0 1 4 6 5 6 6 5 5 4 4 6 5 5 5 5 5 4 4 3 -0 -1 2 2 1 3 4 4 4 1 5
8 2 -0 -0 1 0 0 0 1 3 4 5 5 6 4 4 4 4 5 5 5 5 4 4 4 3 2 -1 -1 1 1 1 3 3 3 5 5 -1
1 -0 -0 1 0 -0 -0 -0 1 2 3 5 4 4 4 4 5 5 5 4 4 4 4 4 3 2 1 -1 -1 -1 1 1 2 3 3 4 6 3
0 0 1 0 -0 -1 -1 0 2 2 2 2 4 4 3 3 4 4 4 4 4 3 3 3 2 1 -1 -1 -2 -2 -1 0 0 2 4 4 6 6
0 1 0 -0 -1 -1 -1 -1 1 2 1 1 3 3 3 3 3 3 3 3 3 2 2 2 1 0 -1 -1 -2 -3 -4 -4 -0 1 2 4 5 5
1 0 0 -0 -1 -1 -1 -2 -1 0 1 2 2 2 2 2 2 2 2 2 2 1 1 1 0 -1 -1 -2 -4 -8 -13 -10 -5 -1 1 2 3 4
1 0 -0 -1 -1 -2 -2 -1 -0 1 1 2 2 2 1 1 1 1 1 1 1 1 0 -0 -1 -1 -2 -4 -14 -21 -23 -24 -21 -7 -3 -0 1 1
1 0 -0 -1 -1 -2 -1 -1 -0 0 1 1 1 1 1 1 1 1 1 0 -0 -0 -1 -3 -3 -3 -7 -18 -22 -24 -26 -27 -26 -24 -14 -5 -2 -0
1 0 -0 -1 -1 -1 -1 -0 0 1 1 1 1 1 0 0 0 -0 -0 -1 -1 -2 -3 -9 -15 -20 -22 -22 -23 -25 -25 -23 -24 -27 -28 -27 -22 -13
1 0 -0 -1 -1 -1 0 0 0 0 0 0 0 -0 -1 -1 -1 -1 -2 -2 -2 -4 -7 -9 -17 -22 -22 -22 -21 -23 -21 -19 -18 -19 -20 -23 -27 -28
1 0 -0 -1 -1 -0 -0 -0 -0 -1 -1 -1 -3 -12 -16 -7 -3 -3 -3 -3 -3 -7 -13 -16 -21 -22 -22 -21 -20 -18 -18 -18 -17 -16 -16 -15 -15 -15
1 1 -0 -1 -1 -1 -1 -1 -2 -2 -2 -7 -15 -21 -22 -19 -13 -9 -8 -7 -10 -13 -25 -23 -24 -22 -21 -15 -19 -18 -15 -15 -16 -15 -15 -15 -15 -15
1 0 -0 -1 -1 -1 -1 -2 -2 -3 -12 -18 -19 -21 -21 -21 -20 -18 -17 -17 -19 -22 -25 -25 -22 -21 -20 -18 -16 -16 -15 -15 -15 -15 -15 -16 -16 -16
0 -0 -1 -1 -2 -2 -2 -2 -6 -11 -18 -19 -20 -20 -21 -21 -22 -22 -24 -25 -26 -26 -27 -27 -22 -19 -18 -16 -16 -16 -16 -16 -15 -15 -15 -16 -17 -16
-0 -1 -1 -1 -3 -5 -5 -4 -12 -18 -20 -21 -21 -19 -20 -20 -20 -21 -23 -25 -24 -25 -23 -22 -21 -19 -17 -17 -16 -16 -16 -16 -17 -17 -17 -17 -17 -17
-0 -1 -1 -1 -2 -11 -10 -9 -15 -16 -19 -20 -20 -19 -20 -20 -21 -22 -24 -24 -21 -18 -20 -20 -19 -18 -18 -17 -17 -16 -16 -16 -17 -17 -18 -18 -18 -18
-1 -1 -1 -1 -2 -5 -17 -14 -16 -16 -16 -18 -20 -20 -20 -21 -22 -22 -24 -22 -19 -19 -20 -20 -20 -20 -20 -19 -19 -19 -19 -19 -20 -21 -21 -20 -19 -18
-2 -1 -1 -1 -2 -2 -4 -18 -19 -17 -15 -16 -19 -19 -20 -21 -22 -22 -23 -20 -19 -19 -20 -20 -20 -20 -21 -21 -20 -22 -22 -22 -21 -20 -19 -19 -17 -14
-2 -2 -2 -1 -2 -2 -2 -5 -19 -17 -17 -16 -16 -17 -19 -18 -19 -21 -21 -16 -15 -18 -19 -18 -16 -18 -19 -20 -20 -21 -22 -22 -20 -17 -15 -14 -13 -11
-2 -3 -2 -2 -2 -2 -2 -2 -5 -20 -21 -19 -17 -18 -19 -19 -19 -19 -17 -14 -14 -13 -16 -18 -18 -18 -14 -14 -17 -20 -21 -22 -21 -14 -12 -11 -10 -8
-2 -2 -3 -2 -2 -2 -2 -2 -2 -10 -20 -20 -19 -18 -18 -19 -19 -20 -17 -16 -12 -7 -16 -20 -19 -13 -12 -14 -19 -20 -20 -21 -18 -12 -9 -8 -8 -8
-3 -3 -3 -2 -2 -2 -2 -2 -2 -4 -17 -19 -19 -19 -20 -20 -19 -19 -18 -11 -5 -9 -17 -20 -19 -13 -12 -11 -15 -17 -18 -20 -19 -17 -12 -9 -9 -9

GFSNE_850_dewp_087.txt.gz
Dewpoint
9 9 10 9 9 9 10 9 8 8 6 3 4 4 5 7 6 6 4 4 4 4 5 6 6 5 5 5 4 4 2 2 -0 -1 -0 0 4 3
10 10 10 10 10 9 9 9 8 6 3 3 3 4 5 6 6 5 5 5 4 4 4 4 4 5 5 4 4 2 2 1 -1 -0 -0 -1 2 3
10 10 10 10 9 8 8 5 2 3 2 3 4 5 5 5 5 5 3 4 4 4 4 4 5 4 4 4 2 2 1 -1 -1 -1 -1 1 -1 -1
10 10 9 9 9 8 5 1 1 2 2 2 2 4 5 3 4 4 4 3 3 3 4 4 4 4 4 3 2 1 0 -1 -2 -1 1 2 5 1
9 9 9 9 9 7 1 0 1 1 1 1 1 2 4 3 3 2 3 3 2 2 3 3 3 3 3 3 1 1 -0 -2 -2 -2 1 3 4 6
9 9 9 8 6 1 1 1 1 0 1 2 2 3 3 3 2 2 2 2 2 3 3 3 3 3 2 1 1 1 -1 -2 -2 -4 -0 3 3 5
8 8 8 6 3 1 1 1 0 1 1 2 2 3 2 2 2 2 1 2 2 1 2 2 2 2 1 1 1 -0 -2 -3 -5 -6 -2 1 3 5
7 6 5 4 2 1 1 0 0 0 0 0 0 1 1 1 2 1 1 1 1 1 1 1 1 1 0 0 -0 -2 -3 -8 -14 -14 -6 -0 2 4
3 4 3 2 1 1 1 0 0 -0 -1 -1 -1 -1 0 1 1 1 1 1 1 1 1 1 1 -0 -0 -2 -2 -5 -14 -22 -24 -24 -17 -4 0 1
2 2 1 1 1 1 1 0 0 -1 -1 -1 -1 -1 1 0 0 1 0 0 0 0 0 -0 -1 -1 -3 -6 -6 -15 -23 -25 -26 -26 -25 -16 -5 -1
2 1 1 1 1 1 1 1 0 -1 -1 -1 -1 0 0 0 0 0 0 1 0 -0 -1 -1 -2 -3 -9 -18 -21 -23 -24 -23 -23 -24 -27 -26 -22 -11
2 2 2 1 1 1 1 0 -0 -1 -1 -1 0 -0 0 -0 -0 -0 -0 -0 -1 -1 -2 -2 -3 -7 -13 -18 -22 -22 -22 -21 -19 -19 -21 -24 -26 -26
2 2 2 1 1 1 1 1 0 -1 -1 -0 -0 -0 -1 -1 -1 -1 -1 -1 -2 -2 -4 -5 -7 -8 -17 -22 -22 -20 -19 -19 -18 -16 -17 -16 -16 -16
1 1 1 1 1 1 1 1 -0 -1 -1 -1 -1 -1 -1 -1 -5 -13 -7 -7 -7 -7 -5 -7 -17 -17 -19 -24 -18 -21 -18 -17 -17 -16 -15 -15 -15 -14
-0 0 1 1 1 1 0 -0 -1 -1 -1 -1 -1 -3 -4 -9 -18 -19 -16 -12 -10 -8 -7 -9 -15 -23 -22 -22 -22 -19 -18 -17 -16 -16 -15 -15 -15 -15
-1 -1 -0 -0 0 -0 -1 -1 -1 -1 -1 -1 -1 -4 -9 -17 -20 -20 -20 -18 -13 -14 -14 -18 -21 -24 -22 -21 -21 -19 -18 -17 -17 -16 -15 -15 -15 -15
-2 -2 -1 -1 -1 -1 -1 -1 -1 -1 -2 -2 -2 -3 -10 -17 -19 -20 -21 -21 -20 -22 -24 -24 -26 -25 -23 -21 -18 -18 -17 -17 -17 -17 -16 -16 -16 -17
-2 -3 -2 -2 -1 -1 -2 -2 -2 -2 -2 -2 -2 -4 -12 -17 -18 -19 -20 -21 -22 -24 -26 -26 -26 -23 -21 -19 -19 -19 -18 -18 -17 -16 -17 -17 -17 -18
-3 -2 -3 -3 -2 -2 -2 -2 -2 -2 -2 -3 -3 -7 -13 -15 -16 -17 -18 -19 -21 -23 -24 -23 -19 -20 -20 -19 -18 -16 -19 -19 -18 -18 -18 -20 -21 -20
-4 -3 -3 -3 -3 -2 -2 -2 -2 -2 -3 -3 -4 -6 -11 -14 -15 -16 -17 -19 -21 -23 -22 -19 -18 -20 -20 -19 -20 -19 -18 -19 -20 -21 -21 -21 -20 -18
-6 -5 -4 -3 -3 -3 -3 -3 -2 -3 -2 -3 -4 -5 -7 -10 -14 -16 -18 -19 -20 -22 -23 -18 -17 -18 -18 -18 -16 -17 -15 -14 -17 -20 -21 -21 -19 -15
-7 -5 -5 -4 -3 -3 -3 -3 -3 -3 -3 -3 -4 -4 -7 -9 -11 -16 -18 -19 -20 -22 -22 -19 -16 -16 -16 -16 -16 -16 -13 -13 -18 -19 -20 -21 -20 -15
-7 -6 -6 -5 -5 -4 -4 -3 -3 -3 -3 -3 -3 -4 -6 -10 -8 -13 -17 -17 -19 -21 -20 -17 -15 -13 -11 -16 -11 -15 -12 -12 -15 -17 -18 -18 -18 -15

GFSNE_850_dewp_090.txt.gz
Dewpoint
8 9 9 9 10 10 9 10 9 8 8 8 7 6 6 6 6 6 6 6 4 4 4 4 4 5 5 5 5 5 4 3 2 1 0 -1 -1 -1
9 9 9 9 9 9 9 10 9 9 8 7 7 5 3 4 4 5 5 5 4 4 4 4 3 4 4 4 4 4 3 2 1 0 -1 -1 0 -1
10 10 9 10 9 9 9 9 9 9 8 6 3 3 3 4 5 5 5 5 4 2 3 3 3 3 4 5 4 4 2 1 1 -0 -1 -1 -0 -2
9 10 10 9 9 9 9 9 9 7 5 4 3 4 4 5 5 5 4 3 3 3 3 3 3 4 4 4 4 3 1 1 1 -1 -1 -1 1 3
8 9 9 8 9 9 9 8 6 2 2 3 3 3 4 4 4 3 3 3 2 3 3 2 2 3 3 3 3 3 1 1 0 -2 -2 -1 1 4
8 8 8 8 9 9 8 8 3 2 2 2 3 3 2 2 2 3 3 2 2 2 2 2 2 2 3 3 2 2 1 1 -1 -2 -3 -2 2 4
8 7 8 8 8 8 7 4 2 2 2 2 2 2 1 1 2 2 2 1 1 2 2 2 2 2 2 2 2 1 1 0 -2 -3 -5 -3 1 4
7 7 7 7 7 7 4 3 2 2 1 1 1 1 -0 -0 1 1 1 1 1 1 1 1 1 2 1 1 0 0 -0 -2 -3 -5 -9 -4 1 3
4 5 5 5 5 5 5 4 2 2 2 2 0 0 0 -1 -1 1 1 1 1 1 1 1 1 1 1 0 -0 -2 -2 -4 -10 -20 -22 -10 -0 1
2 3 3 3 3 3 2 2 3 3 1 1 1 -0 0 -1 -0 0 1 1 1 1 1 1 1 0 -0 -0 -2 -4 -4 -14 -24 -26 -25 -22 -5 -1
2 2 2 2 2 2 2 1 2 1 1 1 0 -0 -1 -1 -0 0 1 0 0 0 1 0 -0 -1 -1 -2 -11 -15 -22 -24 -24 -25 -27 -25 -17 -6
1 2 2 2 2 2 1 1 1 1 1 0 -0 -0 -1 -0 0 -0 0 1 0 0 0 -0 -1 -1 -3 -8 -13 -20 -22 -24 -22 -22 -23 -26 -25 -22
0 1 2 2 2 2 1 1 1 1 1 0 0 -0 0 0 -0 0 0 -0 -0 -0 -1 -1 -1 -2 -6 -23 -18 -21 -21 -21 -21 -19 -18 -18 -20 -22
-1 -0 1 1 1 1 1 1 1 1 1 0 -0 -1 -0 -0 -0 -1 -1 -1 -1 -1 -1 -2 -8 -5 -6 -11 -21 -22 -21 -20 -20 -16 -16 -15 -15 -15
-2 -1 -1 0 0 1 1 1 1 0 0 0 -0 -1 -1 -1 -1 -1 -1 -2 -3 -3 -3 -6 -6 -18 -17 -13 -23 -18 -23 -21 -18 -17 -16 -15 -15 -15
-3 -2 -1 -1 -0 -0 -0 -0 -0 -0 -0 0 -0 -1 -1 -2 -2 -5 -11 -11 -7 -7 -8 -7 -6 -9 -22 -22 -23 -23 -20 -18 -18 -17 -16 -16 -15 -15
-5 -4 -3 -2 -2 -1 -1 -1 -1 -1 -1 -1 -1 -1 -2 -2 -3 -10 -16 -13 -11 -10 -10 -9 -8 -12 -23 -21 -22 -21 -20 -18 -18 -17 -16 -15 -15 -15
-5 -5 -4 -3 -3 -2 -2 -1 -1 -2 -2 -2 -1 -1 -2 -2 -3 -12 -16 -15 -15 -15 -13 -14 -15 -19 -24 -21 -21 -19 -18 -17 -17 -17 -17 -17 -17 -17
-6 -5 -5 -5 -3 -3 -3 -2 -2 -2 -2 -2 -2 -2 -2 -3 -3 -10 -16 -17 -17 -17 -19 -21 -21 -23 -25 -21 -19 -20 -19 -19 -18 -17 -17 -17 -17 -17
-7 -6 -6 -5 -5 -4 -3 -3 -3 -2 -2 -2 -2 -2 -2 -3 -4 -10 -14 -16 -17 -18 -20 -22 -23 -25 -23 -20 -19 -18 -16 -17 -18 -18 -18 -18 -19 -20
-8 -7 -7 -7 -6 -5 -4 -3 -3 -3 -3 -2 -2 -3 -3 -3 -4 -10 -14 -15 -15 -15 -18 -22 -24 -20 -19 -18 -17 -19 -18 -18 -18 -19 -20 -21 -21 -21
-9 -9 -8 -7 -7 -6 -5 -4 -3 -3 -3 -3 -3 -3 -3 -3 -4 -8 -13 -14 -14 -15 -18 -21 -20 -17 -18 -18 -16 -16 -17 -16 -13 -12 -13 -18 -21 -21
-10 -9 -9 -8 -7 -6 -5 -5 -4 -4 -3 -3 -3 -3 -3 -4 -5 -5 -6 -15 -13 -15 -17 -19 -19 -16 -17 -17 -17 -16 -17 -14 -12 -12 -15 -18 -20 -20

GFSNE_850_dewp_096.txt.gz
Dewpoint
9 9 9 9 8 8 9 9 10 10 9 9 10 9 9 9 8 8 8 7 6 5 5 4 3 4 4 5 4 3 4 4 3 4 3 2 1 1
9 9 9 8 7 9 10 10 9 9 9 9 9 9 9 8 8 8 8 7 7 6 5 4 4 4 4 3 4 4 4 3 3 4 3 1 1 1
9 9 9 9 9 9 9 9 9 9 9 9 9 9 9 8 8 8 6 6 7 6 5 4 4 4 4 2 2 3 3 3 4 4 3 1 1 0
9 9 9 8 8 9 9 9 9 9 9 9 9 8 8 8 8 7 7 7 7 6 5 5 4 3 3 1 3 3 3 3 4 3 2 1 0 -0
5 6 7 7 7 8 8 8 9 9 9 9 9 8 8 8 7 7 7 6 6 6 5 4 4 3 2 2 3 3 3 3 3 2 2 0 -0 -1
2 4 6 6 7 7 7 8 8 8 8 8 8 8 8 7 6 5 5 6 5 5 4 3 2 2 2 2 1 2 3 3 2 2 1 0 -0 -2
1 3 5 5 6 6 6 7 7 7 7 8 7 7 7 6 5 5 5 5 5 4 3 2 2 1 2 2 1 1 2 1 1 1 0 -0 -1 -4
-1 1 2 4 5 6 6 6 7 7 7 7 7 7 4 3 4 4 3 3 3 2 2 1 1 1 1 1 1 1 1 1 1 -0 -0 -1 -3 -7
-18 -6 -0 2 3 4 5 5 6 6 6 7 7 6 4 3 3 4 3 2 1 1 0 -0 1 1 1 1 1 1 1 1 -0 -0 -1 -2 -6 -9
-20 -14 -12 -1 1 2 3 4 4 5 5 5 6 5 5 4 4 3 3 2 2 1 1 0 1 1 1 0 0 0 1 0 -0 -1 -3 -10 -16 -11
-21 -20 -15 -5 -1 1 2 2 3 3 4 4 4 4 4 3 3 3 3 3 2 1 1 1 0 0 0 0 0 0 0 -0 -1 -4 -7 -20 -24 -15
-18 -16 -14 -10 -2 -1 1 1 2 2 3 3 3 4 4 4 3 4 3 3 2 1 0 1 0 0 -0 0 0 -0 -1 -1 -5 -11 -20 -26 -27 -22
-14 -16 -18 -8 -4 -2 -0 0 1 2 2 2 2 2 3 3 3 3 2 1 0 0 0 0 -0 -0 -0 -2 -3 -2 -1 -1 -15 -21 -25 -25 -27 -25
-14 -15 -12 -17 -8 -4 -2 -1 -0 1 1 1 1 1 2 2 2 2 1 1 0 0 -0 -0 0 -1 -1 -1 -1 -2 -9 -5 -17 -21 -22 -22 -27 -26
-8 -6 -6 -8 -8 -5 -4 -3 -1 -0 0 1 1 1 1 1 1 1 1 0 0 -0 -1 -0 -0 -1 -2 -2 -2 -2 -17 -12 -17 -21 -18 -19 -20 -23
-8 -8 -7 -7 -7 -9 -7 -4 -2 -1 -0 -0 0 0 0 1 0 -0 -0 0 -0 -1 -1 -1 -1 -1 -2 -3 -5 -3 -4 -17 -19 -20 -16 -16 -17 -18
-7 -7 -7 -7 -7 -7 -5 -4 -3 -2 -1 -1 -1 -1 -0 -0 -0 -1 -1 -1 -1 -1 -1 -1 -2 -2 -3 -3 -6 -10 -9 -18 -18 -19 -17 -16 -16 -15
-8 -8 -8 -8 -8 -7 -6 -5 -4 -3 -3 -2 -1 -1 -1 -1 -1 -1 -1 -1 -1 -1 -2 -2 -3 -3 -4 -4 -4 -18 -15 -19 -19 -17 -17 -15 -16 -15
-8 -8 -8 -8 -8 -8 -8 -7 -6 -4 -4 -3 -3 -2 -2 -1 -1 -1 -1 -2 -2 -2 -3 -3 -3 -4 -4 -5 -6 -7 -21 -22 -19 -16 -17 -16 -16 -15
-9 -9 -9 -9 -9 -9 -8 -8 -7 -6 -4 -4 -4 -3 -3 -2 -2 -2 -2 -2 -2 -3 -4 -7 -6 -6 -6 -8 -6 -12 -23 -21 -21 -17 -17 -16 -14 -14
-9 -10 -10 -10 -10 -9 -9 -9 -8 -7 -5 -5 -5 -4 -4 -4 -3 -3 -2 -2 -3 -3 -4 -11 -14 -8 -6 -6 -8 -13 -21 -21 -18 -18 -17 -16 -16 -16
-10 -10 -9 -9 -10 -10 -10 -10 -9 -7 -7 -6 -6 -5 -5 -4 -4 -3 -3 -3 -3 -3 -3 -8 -13 -13 -13 -13 -14 -19 -22 -18 -18 -16 -17 -16 -16 -16
-9 -10 -10 -9 -10 -10 -10 -10 -10 -9 -7 -7 -6 -6 -5 -5 -4 -4 -3 -3 -3 -3 -4 -9 -12 -15 -18 -20 -19 -21 -19 -18 -17 -16 -16 -17 -17 -18

GFSNE_850_dewp_099.txt.gz
Dewpoint
8 7 8 8 8 8 9 9 9 9 9 8 7 9 8 8 9 9 9 9 7 7 6 5 5 5 5 4 5 5 3 3 3 4 3 3 2 1
7 8 9 8 8 9 9 8 8 9 9 9 9 8 7 7 9 9 9 8 8 7 6 5 5 4 4 3 4 4 3 2 3 3 3 3 2 1
9 9 9 9 8 9 9 9 9 9 9 9 9 9 8 8 8 8 9 8 8 7 6 5 5 5 4 4 4 3 2 3 3 3 3 3 2 1
7 8 8 8 8 8 8 8 8 9 8 8 8 8 8 8 8 8 8 8 8 6 6 6 6 5 5 4 4 2 1 3 3 3 3 3 1 1
1 2 4 4 5 7 6 7 7 8 8 8 8 8 8 8 8 8 8 8 7 7 7 7 6 5 4 4 3 2 3 2 2 3 3 2 1 0
-2 -1 1 4 4 5 6 6 7 6 7 8 8 8 8 8 8 8 7 7 7 7 7 6 5 5 4 3 2 2 2 2 3 3 2 2 1 -0
-20 -11 -2 1 3 4 5 6 5 6 6 7 7 8 8 8 8 7 7 7 7 6 6 5 5 4 3 2 2 2 1 2 2 2 1 1 -0 -0
-18 -18 -20 -20 -3 2 3 4 5 5 6 6 6 6 6 7 7 7 7 6 6 6 5 5 4 3 2 1 1 1 1 1 1 1 1 -0 -0 -2
-19 -19 -19 -19 -20 -19 -4 2 3 4 4 5 5 6 6 7 7 7 6 6 4 4 5 4 3 2 1 0 1 0 0 0 0 1 -0 -0 -2 -3
-20 -20 -20 -20 -18 -12 -9 -12 0 2 3 4 4 5 6 6 7 6 5 4 5 5 4 1 1 0 -0 0 1 0 0 0 1 1 -0 -1 -4 -9
-23 -22 -20 -19 -19 -17 -3 -1 -2 -2 2 3 4 4 5 5 6 5 5 5 4 4 3 2 1 0 0 0 0 0 0 0 1 -0 -0 -3 -10 -17
-25 -25 -24 -21 -18 -13 -6 -3 -1 -0 -1 1 2 3 4 4 5 4 4 4 4 3 2 2 1 1 0 -0 -0 -0 -0 0 0 -1 -1 -6 -18 -23
-16 -21 -23 -23 -21 -19 -14 -6 -4 -2 -1 0 1 2 2 3 3 4 4 3 3 3 3 3 2 0 0 -1 -0 -0 -0 -1 -1 -1 -9 -17 -25 -25
-13 -16 -17 -18 -17 -9 -8 -6 -5 -3 -2 -1 0 1 1 2 2 3 3 3 3 3 3 2 1 -0 -0 -0 -2 -2 -1 -1 -1 -2 -19 -23 -25 -25
-9 -8 -7 -7 -10 -11 -11 -11 -7 -7 -3 -2 -1 0 1 1 1 1 2 2 2 2 1 1 -0 -0 -1 -0 -1 -2 -2 -4 -4 -6 -19 -21 -23 -25
-9 -9 -8 -7 -7 -8 -8 -8 -6 -5 -4 -2 -2 -1 0 0 0 0 -0 1 1 1 0 0 -0 -0 -1 -1 -1 -2 -2 -8 -9 -12 -18 -19 -20 -21
-8 -7 -8 -9 -8 -8 -8 -8 -7 -6 -4 -3 -2 -1 -1 -0 -0 -0 -0 -0 0 0 -0 -0 -1 -1 -1 -2 -2 -2 -4 -4 -12 -15 -18 -17 -17 -18
-8 -9 -8 -8 -9 -8 -9 -9 -9 -7 -6 -5 -4 -3 -2 -1 -1 -1 -1 -1 -1 -0 -1 -1 -1 -1 -2 -2 -2 -3 -7 -6 -12 -18 -18 -16 -16 -15
-9 -8 -8 -9 -8 -9 -9 -9 -9 -9 -7 -6 -5 -4 -3 -2 -2 -1 -2 -2 -1 -1 -1 -1 -1 -2 -2 -3 -3 -3 -9 -13 -16 -17 -17 -18 -17 -16
-10 -10 -10 -10 -10 -10 -9 -10 -10 -10 -9 -7 -6 -5 -4 -4 -3 -2 -2 -2 -2 -2 -2 -2 -2 -2 -2 -2 -3 -6 -5 -17 -17 -17 -18 -16 -15 -15
-10 -10 -10 -10 -10 -9 -9 -10 -10 -10 -10 -8 -7 -5 -5 -5 -4 -4 -3 -2 -2 -2 -2 -2 -3 -3 -3 -3 -5 -6 -7 -9 -18 -19 -16 -16 -15 -15
-10 -10 -10 -10 -10 -9 -10 -10 -10 -11 -10 -9 -7 -7 -6 -5 -5 -5 -4 -4 -4 -3 -2 -3 -3 -4 -5 -7 -6 -6 -8 -17 -18 -18 -15 -16 -17 -16
-10 -10 -9 -10 -10 -10 -9 -10 -11 -10 -11 -10 -8 -7 -6 -6 -6 -5 -5 -5 -4 -3 -3 -3 -5 -7 -6 -6 -6 -7 -13 -18 -18 -16 -14 -14 -15 -16